owner,sensor,date,latitude,longitude,vertical_datum,mass_concentration_of_oxygen_in_sea_water,qcFlag 
DISL,ioos:station:DISL:MHPA:1,2009-07-01T00:00:00Z,30.6671,-87.9365,3.37,7.17,1111122 
DISL,ioos:station:DISL:MHPA:1,2009-07-01T00:30:00Z,30.6671,-87.9365,3.429,7.19,1111122 
DISL,ioos:station:DISL:MHPA:1,2009-07-01T01:00:00Z,30.6671,-87.9365,3.407,7.14,1111122 
DISL,ioos:station:DISL:MHPA:1,2009-07-01T01:30:00Z,30.6671,-87.9365,3.503,7.14,1111122 
DISL,ioos:station:DISL:MHPA:1,2009-07-01T02:00:00Z,30.6671,-87.9365,3.497,7.02,1111122 
DISL,ioos:station:DISL:MHPA:1,2009-07-01T02:30:00Z,30.6671,-87.9365,3.625,6.84,1111122 
DISL,ioos:station:DISL:MHPA:1,2009-07-01T03:00:00Z,30.6671,-87.9365,3.666,6.89,1111122 
DISL,ioos:station:DISL:MHPA:1,2009-07-01T03:30:00Z,30.6671,-87.9365,3.708,6.74,1111122 
DISL,ioos:station:DISL:MHPA:1,2009-07-01T04:00:00Z,30.6671,-87.9365,3.806,6.53,1111122 
DISL,ioos:station:DISL:MHPA:1,2009-07-01T04:30:00Z,30.6671,-87.9365,3.826,6.39,1111122 
DISL,ioos:station:DISL:MHPA:1,2009-07-01T05:00:00Z,30.6671,-87.9365,3.898,6.31,1111122 
DISL,ioos:station:DISL:MHPA:1,2009-07-01T05:30:00Z,30.6671,-87.9365,3.995,6.06,1111122 
DISL,ioos:station:DISL:MHPA:1,2009-07-01T06:00:00Z,30.6671,-87.9365,4.051,5.98,1111122 
DISL,ioos:station:DISL:MHPA:1,2009-07-01T06:30:00Z,30.6671,-87.9365,4.098,5.88,1111122 
DISL,ioos:station:DISL:MHPA:1,2009-07-01T07:00:00Z,30.6671,-87.9365,4.174,5.89,1111122 
DISL,ioos:station:DISL:MHPA:1,2009-07-01T07:30:00Z,30.6671,-87.9365,4.248,5.53,1111122 
DISL,ioos:station:DISL:MHPA:1,2009-07-01T08:00:00Z,30.6671,-87.9365,4.338,5.63,1111122 
DISL,ioos:station:DISL:MHPA:1,2009-07-01T08:30:00Z,30.6671,-87.9365,4.41,5.59,1111122 
DISL,ioos:station:DISL:MHPA:1,2009-07-01T09:00:00Z,30.6671,-87.9365,4.486,5.48,1111122 
DISL,ioos:station:DISL:MHPA:1,2009-07-01T09:30:00Z,30.6671,-87.9365,4.538,5.19,1111122 
DISL,ioos:station:DISL:MHPA:1,2009-07-01T10:00:00Z,30.6671,-87.9365,4.597,5.24,1111122 
DISL,ioos:station:DISL:MHPA:1,2009-07-01T10:30:00Z,30.6671,-87.9365,4.617,5.35,1111122 
DISL,ioos:station:DISL:MHPA:1,2009-07-01T11:00:00Z,30.6671,-87.9365,4.65,5.12,1111122 
DISL,ioos:station:DISL:MHPA:1,2009-07-01T11:30:00Z,30.6671,-87.9365,4.701,5.08,1111122 
DISL,ioos:station:DISL:MHPA:1,2009-07-01T12:00:00Z,30.6671,-87.9365,4.653,5.27,1111122 
DISL,ioos:station:DISL:MHPA:1,2009-07-01T12:30:00Z,30.6671,-87.9365,4.665,5.41,1111122 
DISL,ioos:station:DISL:MHPA:1,2009-07-01T13:00:00Z,30.6671,-87.9365,4.68,5.2,1111122 
DISL,ioos:station:DISL:MHPA:1,2009-07-01T13:30:00Z,30.6671,-87.9365,4.631,5.31,1111122 
DISL,ioos:station:DISL:MHPA:1,2009-07-01T14:00:00Z,30.6671,-87.9365,4.582,5.11,1111122 
DISL,ioos:station:DISL:MHPA:1,2009-07-01T14:30:00Z,30.6671,-87.9365,4.545,5.05,1111122 
DISL,ioos:station:DISL:MHPA:1,2009-07-01T15:00:00Z,30.6671,-87.9365,4.479,5.25,1111122 
DISL,ioos:station:DISL:MHPA:1,2009-07-01T15:30:00Z,30.6671,-87.9365,4.351,5.65,1111122 
DISL,ioos:station:DISL:MHPA:1,2009-07-01T16:00:00Z,30.6671,-87.9365,4.287,6.21,1111122 
DISL,ioos:station:DISL:MHPA:1,2009-07-01T16:30:00Z,30.6671,-87.9365,4.174,6.12,1111122 
DISL,ioos:station:DISL:MHPA:1,2009-07-01T17:00:00Z,30.6671,-87.9365,4.064,6.61,1111122 
DISL,ioos:station:DISL:MHPA:1,2009-07-01T17:30:00Z,30.6671,-87.9365,3.939,6.67,1111122 
DISL,ioos:station:DISL:MHPA:1,2009-07-01T18:00:00Z,30.6671,-87.9365,3.782,6.58,1111122 
DISL,ioos:station:DISL:MHPA:1,2009-07-01T18:30:00Z,30.6671,-87.9365,3.689,6.81,1111122 
DISL,ioos:station:DISL:MHPA:1,2009-07-01T19:00:00Z,30.6671,-87.9365,3.613,6.85,1111122 
DISL,ioos:station:DISL:MHPA:1,2009-07-01T19:30:00Z,30.6671,-87.9365,3.542,7.46,1111122 
DISL,ioos:station:DISL:MHPA:1,2009-07-01T20:00:00Z,30.6671,-87.9365,3.53,6.94,1111122 
DISL,ioos:station:DISL:MHPA:1,2009-07-01T20:30:00Z,30.6671,-87.9365,3.555,7.17,1111122 
DISL,ioos:station:DISL:MHPA:1,2009-07-01T21:00:00Z,30.6671,-87.9365,3.53,7.28,1111122 
DISL,ioos:station:DISL:MHPA:1,2009-07-01T21:30:00Z,30.6671,-87.9365,3.406,7.39,1111122 
DISL,ioos:station:DISL:MHPA:1,2009-07-01T22:00:00Z,30.6671,-87.9365,3.395,7.62,1111122 
DISL,ioos:station:DISL:MHPA:1,2009-07-01T22:30:00Z,30.6671,-87.9365,3.409,7.72,1111122 
DISL,ioos:station:DISL:MHPA:1,2009-07-01T23:00:00Z,30.6671,-87.9365,3.339,7.81,1111122 
DISL,ioos:station:DISL:MHPA:1,2009-07-01T23:30:00Z,30.6671,-87.9365,3.248,7.84,1111122 
DISL,ioos:station:DISL:MHPA:1,2009-07-02T00:00:00Z,30.6671,-87.9365,3.219,7.62,1111122 
DISL,ioos:station:DISL:MHPA:1,2009-07-02T00:30:00Z,30.6671,-87.9365,3.215,7.51,1111122 
DISL,ioos:station:DISL:MHPA:1,2009-07-02T01:00:00Z,30.6671,-87.9365,3.215,7.41,1111122 
DISL,ioos:station:DISL:MHPA:1,2009-07-02T01:30:00Z,30.6671,-87.9365,3.321,7.17,1111122 
DISL,ioos:station:DISL:MHPA:1,2009-07-02T02:00:00Z,30.6671,-87.9365,3.476,6.87,1111122 
DISL,ioos:station:DISL:MHPA:1,2009-07-02T02:30:00Z,30.6671,-87.9365,3.554,6.82,1111122 
DISL,ioos:station:DISL:MHPA:1,2009-07-02T03:00:00Z,30.6671,-87.9365,3.647,6.73,1111122 
DISL,ioos:station:DISL:MHPA:1,2009-07-02T03:30:00Z,30.6671,-87.9365,3.74,6.61,1111122 
DISL,ioos:station:DISL:MHPA:1,2009-07-02T04:00:00Z,30.6671,-87.9365,3.841,6.3,1111122 
DISL,ioos:station:DISL:MHPA:1,2009-07-02T04:30:00Z,30.6671,-87.9365,3.934,6.33,1111122 
DISL,ioos:station:DISL:MHPA:1,2009-07-02T05:00:00Z,30.6671,-87.9365,4.063,6.28,1111122 
DISL,ioos:station:DISL:MHPA:1,2009-07-02T05:30:00Z,30.6671,-87.9365,4.189,6.22,1111122 
DISL,ioos:station:DISL:MHPA:1,2009-07-02T06:00:00Z,30.6671,-87.9365,4.293,6.19,1111122 
DISL,ioos:station:DISL:MHPA:1,2009-07-02T06:30:00Z,30.6671,-87.9365,4.325,6.08,1111122 
DISL,ioos:station:DISL:MHPA:1,2009-07-02T07:00:00Z,30.6671,-87.9365,4.398,5.92,1111122 
DISL,ioos:station:DISL:MHPA:1,2009-07-02T07:30:00Z,30.6671,-87.9365,4.43,5.76,1111122 
DISL,ioos:station:DISL:MHPA:1,2009-07-02T08:00:00Z,30.6671,-87.9365,4.451,5.68,1111122 
DISL,ioos:station:DISL:MHPA:1,2009-07-02T08:30:00Z,30.6671,-87.9365,4.542,5.47,1111122 
DISL,ioos:station:DISL:MHPA:1,2009-07-02T09:00:00Z,30.6671,-87.9365,4.617,5.5,1111122 
DISL,ioos:station:DISL:MHPA:1,2009-07-02T09:30:00Z,30.6671,-87.9365,4.645,5.45,1111122 
DISL,ioos:station:DISL:MHPA:1,2009-07-02T10:00:00Z,30.6671,-87.9365,4.708,5.5,1111122 
DISL,ioos:station:DISL:MHPA:1,2009-07-02T10:30:00Z,30.6671,-87.9365,4.758,5.38,1111122 
DISL,ioos:station:DISL:MHPA:1,2009-07-02T11:00:00Z,30.6671,-87.9365,4.769,5.33,1111122 
DISL,ioos:station:DISL:MHPA:1,2009-07-02T11:30:00Z,30.6671,-87.9365,4.852,5.25,1111122 
DISL,ioos:station:DISL:MHPA:1,2009-07-02T12:00:00Z,30.6671,-87.9365,4.934,5.26,1111122 
DISL,ioos:station:DISL:MHPA:1,2009-07-02T12:30:00Z,30.6671,-87.9365,4.916,5.15,1111122 
DISL,ioos:station:DISL:MHPA:1,2009-07-02T13:00:00Z,30.6671,-87.9365,4.897,5.26,1111122 
DISL,ioos:station:DISL:MHPA:1,2009-07-02T13:30:00Z,30.6671,-87.9365,4.915,5.29,1111122 
DISL,ioos:station:DISL:MHPA:1,2009-07-02T14:00:00Z,30.6671,-87.9365,4.838,5.53,1111122 
DISL,ioos:station:DISL:MHPA:1,2009-07-02T14:30:00Z,30.6671,-87.9365,4.747,5.75,1111122 
DISL,ioos:station:DISL:MHPA:1,2009-07-02T15:00:00Z,30.6671,-87.9365,4.748,5.99,1111122 
DISL,ioos:station:DISL:MHPA:1,2009-07-02T15:30:00Z,30.6671,-87.9365,4.688,6.17,1111122 
DISL,ioos:station:DISL:MHPA:1,2009-07-02T16:00:00Z,30.6671,-87.9365,4.575,6.77,1111122 
DISL,ioos:station:DISL:MHPA:1,2009-07-02T16:30:00Z,30.6671,-87.9365,4.496,6.72,1111122 
DISL,ioos:station:DISL:MHPA:1,2009-07-02T17:00:00Z,30.6671,-87.9365,4.407,6.5,1111122 
DISL,ioos:station:DISL:MHPA:1,2009-07-02T17:30:00Z,30.6671,-87.9365,4.279,7.33,1111122 
DISL,ioos:station:DISL:MHPA:1,2009-07-02T18:00:00Z,30.6671,-87.9365,4.193,7.26,1111122 
DISL,ioos:station:DISL:MHPA:1,2009-07-02T18:30:00Z,30.6671,-87.9365,4.062,7.38,1111122 
DISL,ioos:station:DISL:MHPA:1,2009-07-02T19:00:00Z,30.6671,-87.9365,3.951,7.31,1111122 
DISL,ioos:station:DISL:MHPA:1,2009-07-02T19:30:00Z,30.6671,-87.9365,3.871,7.6,1111122 
DISL,ioos:station:DISL:MHPA:1,2009-07-02T20:00:00Z,30.6671,-87.9365,3.836,7.65,1111122 
DISL,ioos:station:DISL:MHPA:1,2009-07-02T20:30:00Z,30.6671,-87.9365,3.841,7.23,1111122 
DISL,ioos:station:DISL:MHPA:1,2009-07-02T21:00:00Z,30.6671,-87.9365,3.849,7.87,1111122 
DISL,ioos:station:DISL:MHPA:1,2009-07-02T21:30:00Z,30.6671,-87.9365,3.768,7.83,1111122 
DISL,ioos:station:DISL:MHPA:1,2009-07-02T22:00:00Z,30.6671,-87.9365,3.669,8.01,1111122 
DISL,ioos:station:DISL:MHPA:1,2009-07-02T22:30:00Z,30.6671,-87.9365,3.611,8.02,1111122 
DISL,ioos:station:DISL:MHPA:1,2009-07-02T23:00:00Z,30.6671,-87.9365,3.632,7.84,1111122 
DISL,ioos:station:DISL:MHPA:1,2009-07-02T23:30:00Z,30.6671,-87.9365,3.598,7.88,1111122 
DISL,ioos:station:DISL:MHPA:1,2009-07-03T00:00:00Z,30.6671,-87.9365,3.58,7.45,1111122 
DISL,ioos:station:DISL:MHPA:1,2009-07-03T00:30:00Z,30.6671,-87.9365,3.612,7.2,1111122 
DISL,ioos:station:DISL:MHPA:1,2009-07-03T01:00:00Z,30.6671,-87.9365,3.264,6.93,1111122 
DISL,ioos:station:DISL:MHPA:1,2009-07-03T01:30:00Z,30.6671,-87.9365,3.266,6.66,1111122 
DISL,ioos:station:DISL:MHPA:1,2009-07-03T02:00:00Z,30.6671,-87.9365,3.3,6.63,1111122 
DISL,ioos:station:DISL:MHPA:1,2009-07-03T02:30:00Z,30.6671,-87.9365,3.035,6.58,1111122 
DISL,ioos:station:DISL:MHPA:1,2009-07-03T03:00:00Z,30.6671,-87.9365,3.207,6.45,1111122 
DISL,ioos:station:DISL:MHPA:1,2009-07-03T03:30:00Z,30.6671,-87.9365,3.421,6.33,1111122 
DISL,ioos:station:DISL:MHPA:1,2009-07-03T04:00:00Z,30.6671,-87.9365,3.276,6.3,1111122 
DISL,ioos:station:DISL:MHPA:1,2009-07-03T04:30:00Z,30.6671,-87.9365,3.2,6.18,1111122 
DISL,ioos:station:DISL:MHPA:1,2009-07-03T05:00:00Z,30.6671,-87.9365,3.131,5.85,1111122 
DISL,ioos:station:DISL:MHPA:1,2009-07-03T05:30:00Z,30.6671,-87.9365,3.109,5.71,1111122 
DISL,ioos:station:DISL:MHPA:1,2009-07-03T06:00:00Z,30.6671,-87.9365,3.161,5.57,1111122 
DISL,ioos:station:DISL:MHPA:1,2009-07-03T06:30:00Z,30.6671,-87.9365,3.326,5.47,1111122 
DISL,ioos:station:DISL:MHPA:1,2009-07-03T07:00:00Z,30.6671,-87.9365,3.384,5.29,1111122 
DISL,ioos:station:DISL:MHPA:1,2009-07-03T07:30:00Z,30.6671,-87.9365,3.45,5.17,1111122 
DISL,ioos:station:DISL:MHPA:1,2009-07-03T08:00:00Z,30.6671,-87.9365,3.71,5.24,1111122 
DISL,ioos:station:DISL:MHPA:1,2009-07-03T08:30:00Z,30.6671,-87.9365,3.748,4.97,1111122 
DISL,ioos:station:DISL:MHPA:1,2009-07-03T09:00:00Z,30.6671,-87.9365,3.921,4.94,1111122 
DISL,ioos:station:DISL:MHPA:1,2009-07-03T09:30:00Z,30.6671,-87.9365,4.016,4.75,1111122 
DISL,ioos:station:DISL:MHPA:1,2009-07-03T10:00:00Z,30.6671,-87.9365,4.102,4.73,1111122 
DISL,ioos:station:DISL:MHPA:1,2009-07-03T10:30:00Z,30.6671,-87.9365,4.272,4.5,1111122 
DISL,ioos:station:DISL:MHPA:1,2009-07-03T11:00:00Z,30.6671,-87.9365,4.329,4.8,1111122 
DISL,ioos:station:DISL:MHPA:1,2009-07-03T11:30:00Z,30.6671,-87.9365,4.425,4.63,1111122 
DISL,ioos:station:DISL:MHPA:1,2009-07-03T12:00:00Z,30.6671,-87.9365,4.576,4.64,1111122 
DISL,ioos:station:DISL:MHPA:1,2009-07-03T12:30:00Z,30.6671,-87.9365,4.564,4.62,1111122 
DISL,ioos:station:DISL:MHPA:1,2009-07-03T13:00:00Z,30.6671,-87.9365,4.544,4.64,1111122 
DISL,ioos:station:DISL:MHPA:1,2009-07-03T13:30:00Z,30.6671,-87.9365,4.6,5.02,1111122 
DISL,ioos:station:DISL:MHPA:1,2009-07-03T14:00:00Z,30.6671,-87.9365,4.523,4.93,1111122 
DISL,ioos:station:DISL:MHPA:1,2009-07-03T14:30:00Z,30.6671,-87.9365,4.51,4.87,1111122 
DISL,ioos:station:DISL:MHPA:1,2009-07-03T15:00:00Z,30.6671,-87.9365,4.469,4.64,1111122 
DISL,ioos:station:DISL:MHPA:1,2009-07-03T15:30:00Z,30.6671,-87.9365,4.396,5.01,1111122 
DISL,ioos:station:DISL:MHPA:1,2009-07-03T16:00:00Z,30.6671,-87.9365,4.401,5.36,1111122 
DISL,ioos:station:DISL:MHPA:1,2009-07-03T16:30:00Z,30.6671,-87.9365,4.316,5.18,1111122 
DISL,ioos:station:DISL:MHPA:1,2009-07-03T17:00:00Z,30.6671,-87.9365,4.191,5.62,1111122 
DISL,ioos:station:DISL:MHPA:1,2009-07-03T17:30:00Z,30.6671,-87.9365,4.109,6.02,1111122 
DISL,ioos:station:DISL:MHPA:1,2009-07-03T18:00:00Z,30.6671,-87.9365,4.025,6.55,1111122 
DISL,ioos:station:DISL:MHPA:1,2009-07-03T18:30:00Z,30.6671,-87.9365,3.897,6.67,1111122 
DISL,ioos:station:DISL:MHPA:1,2009-07-03T19:00:00Z,30.6671,-87.9365,3.775,6.94,1111122 
DISL,ioos:station:DISL:MHPA:1,2009-07-03T19:30:00Z,30.6671,-87.9365,3.676,7.09,1111122 
DISL,ioos:station:DISL:MHPA:1,2009-07-03T20:00:00Z,30.6671,-87.9365,3.535,7.22,1111122 
DISL,ioos:station:DISL:MHPA:1,2009-07-03T20:30:00Z,30.6671,-87.9365,3.41,7.48,1111122 
DISL,ioos:station:DISL:MHPA:1,2009-07-03T21:00:00Z,30.6671,-87.9365,3.251,7.46,1111122 
DISL,ioos:station:DISL:MHPA:1,2009-07-03T21:30:00Z,30.6671,-87.9365,3.129,7.5,1111122 
DISL,ioos:station:DISL:MHPA:1,2009-07-03T22:00:00Z,30.6671,-87.9365,3.044,7.17,1111122 
DISL,ioos:station:DISL:MHPA:1,2009-07-03T22:30:00Z,30.6671,-87.9365,2.987,7.37,1111122 
DISL,ioos:station:DISL:MHPA:1,2009-07-03T23:00:00Z,30.6671,-87.9365,2.949,7.75,1111122 
DISL,ioos:station:DISL:MHPA:1,2009-07-03T23:30:00Z,30.6671,-87.9365,2.854,8.01,1111122 
DISL,ioos:station:DISL:MHPA:1,2009-07-04T00:00:00Z,30.6671,-87.9365,2.789,8.53,1111122 
DISL,ioos:station:DISL:MHPA:1,2009-07-04T00:30:00Z,30.6671,-87.9365,2.69,8.43,1111122 
DISL,ioos:station:DISL:MHPA:1,2009-07-04T01:00:00Z,30.6671,-87.9365,2.6,8.15,1111122 
DISL,ioos:station:DISL:MHPA:1,2009-07-04T01:30:00Z,30.6671,-87.9365,2.614,7.9,1111122 
DISL,ioos:station:DISL:MHPA:1,2009-07-04T02:00:00Z,30.6671,-87.9365,2.619,7.53,1111122 
DISL,ioos:station:DISL:MHPA:1,2009-07-04T02:30:00Z,30.6671,-87.9365,2.522,7.41,1111122 
DISL,ioos:station:DISL:MHPA:1,2009-07-04T03:00:00Z,30.6671,-87.9365,2.53,7.37,1111122 
DISL,ioos:station:DISL:MHPA:1,2009-07-04T03:30:00Z,30.6671,-87.9365,2.618,7.43,1111122 
DISL,ioos:station:DISL:MHPA:1,2009-07-04T04:00:00Z,30.6671,-87.9365,2.717,7.28,1111122 
DISL,ioos:station:DISL:MHPA:1,2009-07-04T04:30:00Z,30.6671,-87.9365,2.814,6.97,1111122 
DISL,ioos:station:DISL:MHPA:1,2009-07-04T05:00:00Z,30.6671,-87.9365,2.902,6.86,1111122 
DISL,ioos:station:DISL:MHPA:1,2009-07-04T05:30:00Z,30.6671,-87.9365,2.999,6.9,1111122 
DISL,ioos:station:DISL:MHPA:1,2009-07-04T06:00:00Z,30.6671,-87.9365,3.155,6.82,1111122 
DISL,ioos:station:DISL:MHPA:1,2009-07-04T06:30:00Z,30.6671,-87.9365,3.276,6.57,1111122 
DISL,ioos:station:DISL:MHPA:1,2009-07-04T07:00:00Z,30.6671,-87.9365,3.395,6.16,1111122 
DISL,ioos:station:DISL:MHPA:1,2009-07-04T07:30:00Z,30.6671,-87.9365,3.545,6.09,1111122 
DISL,ioos:station:DISL:MHPA:1,2009-07-04T08:00:00Z,30.6671,-87.9365,3.644,5.4,1111122 
DISL,ioos:station:DISL:MHPA:1,2009-07-04T08:30:00Z,30.6671,-87.9365,3.687,5.61,1111122 
DISL,ioos:station:DISL:MHPA:1,2009-07-04T09:00:00Z,30.6671,-87.9365,3.768,5.54,1111122 
DISL,ioos:station:DISL:MHPA:1,2009-07-04T09:30:00Z,30.6671,-87.9365,3.876,5.48,1111122 
DISL,ioos:station:DISL:MHPA:1,2009-07-04T10:00:00Z,30.6671,-87.9365,4.03,5.56,1111122 
DISL,ioos:station:DISL:MHPA:1,2009-07-04T10:30:00Z,30.6671,-87.9365,4.144,5.67,1111122 
DISL,ioos:station:DISL:MHPA:1,2009-07-04T11:00:00Z,30.6671,-87.9365,4.199,5.45,1111122 
DISL,ioos:station:DISL:MHPA:1,2009-07-04T11:30:00Z,30.6671,-87.9365,4.337,5.61,1111122 
DISL,ioos:station:DISL:MHPA:1,2009-07-04T12:00:00Z,30.6671,-87.9365,4.426,4.92,1111122 
DISL,ioos:station:DISL:MHPA:1,2009-07-04T12:30:00Z,30.6671,-87.9365,4.449,5.41,1111122 
DISL,ioos:station:DISL:MHPA:1,2009-07-04T13:00:00Z,30.6671,-87.9365,4.58,5.48,1111122 
DISL,ioos:station:DISL:MHPA:1,2009-07-04T13:30:00Z,30.6671,-87.9365,4.593,4.99,1111122 
DISL,ioos:station:DISL:MHPA:1,2009-07-04T14:00:00Z,30.6671,-87.9365,4.612,4.98,1111122 
DISL,ioos:station:DISL:MHPA:1,2009-07-04T14:30:00Z,30.6671,-87.9365,4.668,5.38,1111122 
DISL,ioos:station:DISL:MHPA:1,2009-07-04T15:00:00Z,30.6671,-87.9365,4.682,5.16,1111122 
DISL,ioos:station:DISL:MHPA:1,2009-07-04T15:30:00Z,30.6671,-87.9365,4.72,5.19,1111122 
DISL,ioos:station:DISL:MHPA:1,2009-07-04T16:00:00Z,30.6671,-87.9365,4.689,5.58,1111122 
DISL,ioos:station:DISL:MHPA:1,2009-07-04T16:30:00Z,30.6671,-87.9365,4.713,5.69,1111122 
DISL,ioos:station:DISL:MHPA:1,2009-07-04T17:00:00Z,30.6671,-87.9365,4.67,6.23,1111122 
DISL,ioos:station:DISL:MHPA:1,2009-07-04T17:30:00Z,30.6671,-87.9365,4.578,6.44,1111122 
DISL,ioos:station:DISL:MHPA:1,2009-07-04T18:00:00Z,30.6671,-87.9365,4.517,6.62,1111122 
DISL,ioos:station:DISL:MHPA:1,2009-07-04T18:30:00Z,30.6671,-87.9365,4.504,7.06,1111122 
DISL,ioos:station:DISL:MHPA:1,2009-07-04T19:00:00Z,30.6671,-87.9365,4.402,7.31,1111122 
DISL,ioos:station:DISL:MHPA:1,2009-07-04T19:30:00Z,30.6671,-87.9365,4.289,7.49,1111122 
DISL,ioos:station:DISL:MHPA:1,2009-07-04T20:00:00Z,30.6671,-87.9365,4.154,7.64,1111122 
DISL,ioos:station:DISL:MHPA:1,2009-07-04T20:30:00Z,30.6671,-87.9365,3.95,7.77,1111122 
DISL,ioos:station:DISL:MHPA:1,2009-07-04T21:00:00Z,30.6671,-87.9365,3.774,7.77,1111122 
DISL,ioos:station:DISL:MHPA:1,2009-07-04T21:30:00Z,30.6671,-87.9365,3.668,7.82,1111122 
DISL,ioos:station:DISL:MHPA:1,2009-07-04T22:00:00Z,30.6671,-87.9365,3.529,7.87,1111122 
DISL,ioos:station:DISL:MHPA:1,2009-07-04T22:30:00Z,30.6671,-87.9365,3.337,7.72,1111122 
DISL,ioos:station:DISL:MHPA:1,2009-07-04T23:00:00Z,30.6671,-87.9365,3.182,7.92,1111122 
DISL,ioos:station:DISL:MHPA:1,2009-07-04T23:30:00Z,30.6671,-87.9365,3.292,7.75,1111122 
DISL,ioos:station:DISL:MHPA:1,2009-07-05T00:00:00Z,30.6671,-87.9365,3.311,7.89,1111122 
DISL,ioos:station:DISL:MHPA:1,2009-07-05T00:30:00Z,30.6671,-87.9365,3.133,7.6,1111122 
DISL,ioos:station:DISL:MHPA:1,2009-07-05T01:00:00Z,30.6671,-87.9365,2.916,7.46,1111122 
DISL,ioos:station:DISL:MHPA:1,2009-07-05T01:30:00Z,30.6671,-87.9365,2.799,7.09,1111122 
DISL,ioos:station:DISL:MHPA:1,2009-07-05T02:00:00Z,30.6671,-87.9365,2.76,7.03,1111122 
DISL,ioos:station:DISL:MHPA:1,2009-07-05T02:30:00Z,30.6671,-87.9365,2.615,6.9,1111122 
DISL,ioos:station:DISL:MHPA:1,2009-07-05T03:00:00Z,30.6671,-87.9365,2.52,6.7,1111122 
DISL,ioos:station:DISL:MHPA:1,2009-07-05T03:30:00Z,30.6671,-87.9365,2.51,6.64,1111122 
DISL,ioos:station:DISL:MHPA:1,2009-07-05T04:00:00Z,30.6671,-87.9365,2.586,6.55,1111122 
DISL,ioos:station:DISL:MHPA:1,2009-07-05T04:30:00Z,30.6671,-87.9365,2.729,6.44,1111122 
DISL,ioos:station:DISL:MHPA:1,2009-07-05T05:00:00Z,30.6671,-87.9365,2.813,6.23,1111122 
DISL,ioos:station:DISL:MHPA:1,2009-07-05T05:30:00Z,30.6671,-87.9365,2.823,6.08,1111122 
DISL,ioos:station:DISL:MHPA:1,2009-07-05T06:00:00Z,30.6671,-87.9365,2.953,5.67,1111122 
DISL,ioos:station:DISL:MHPA:1,2009-07-05T06:30:00Z,30.6671,-87.9365,3.099,5.52,1111122 
DISL,ioos:station:DISL:MHPA:1,2009-07-05T07:00:00Z,30.6671,-87.9365,3.316,5.37,1111122 
DISL,ioos:station:DISL:MHPA:1,2009-07-05T07:30:00Z,30.6671,-87.9365,3.419,5.42,1111122 
DISL,ioos:station:DISL:MHPA:1,2009-07-05T08:00:00Z,30.6671,-87.9365,3.579,5.48,1111122 
DISL,ioos:station:DISL:MHPA:1,2009-07-05T08:30:00Z,30.6671,-87.9365,3.809,5.7,1111122 
DISL,ioos:station:DISL:MHPA:1,2009-07-05T09:00:00Z,30.6671,-87.9365,3.967,5.58,1111122 
DISL,ioos:station:DISL:MHPA:1,2009-07-05T09:30:00Z,30.6671,-87.9365,4.077,5.5,1111122 
DISL,ioos:station:DISL:MHPA:1,2009-07-05T10:00:00Z,30.6671,-87.9365,4.204,5.36,1111122 
DISL,ioos:station:DISL:MHPA:1,2009-07-05T10:30:00Z,30.6671,-87.9365,4.305,5.36,1111122 
DISL,ioos:station:DISL:MHPA:1,2009-07-05T11:00:00Z,30.6671,-87.9365,4.34,5.16,1111122 
DISL,ioos:station:DISL:MHPA:1,2009-07-05T11:30:00Z,30.6671,-87.9365,4.469,5.22,1111122 
DISL,ioos:station:DISL:MHPA:1,2009-07-05T12:00:00Z,30.6671,-87.9365,4.529,5.26,1111122 
DISL,ioos:station:DISL:MHPA:1,2009-07-05T12:30:00Z,30.6671,-87.9365,4.409,5.16,1111122 
DISL,ioos:station:DISL:MHPA:1,2009-07-05T13:00:00Z,30.6671,-87.9365,4.593,5.17,1111122 
DISL,ioos:station:DISL:MHPA:1,2009-07-05T13:30:00Z,30.6671,-87.9365,4.702,4.94,1111122 
DISL,ioos:station:DISL:MHPA:1,2009-07-05T14:00:00Z,30.6671,-87.9365,4.797,5.04,1111122 
DISL,ioos:station:DISL:MHPA:1,2009-07-05T14:30:00Z,30.6671,-87.9365,4.86,5.34,1111122 
DISL,ioos:station:DISL:MHPA:1,2009-07-05T15:00:00Z,30.6671,-87.9365,4.899,5.35,1111122 
DISL,ioos:station:DISL:MHPA:1,2009-07-05T15:30:00Z,30.6671,-87.9365,4.845,5.44,1111122 
DISL,ioos:station:DISL:MHPA:1,2009-07-05T16:00:00Z,30.6671,-87.9365,4.821,5.49,1111122 
DISL,ioos:station:DISL:MHPA:1,2009-07-05T16:30:00Z,30.6671,-87.9365,4.906,5.89,1111122 
DISL,ioos:station:DISL:MHPA:1,2009-07-05T17:00:00Z,30.6671,-87.9365,4.904,5.88,1111122 
DISL,ioos:station:DISL:MHPA:1,2009-07-05T17:30:00Z,30.6671,-87.9365,4.897,6.06,1111122 
DISL,ioos:station:DISL:MHPA:1,2009-07-05T18:00:00Z,30.6671,-87.9365,4.859,6.49,1111122 
DISL,ioos:station:DISL:MHPA:1,2009-07-05T18:30:00Z,30.6671,-87.9365,4.738,6.68,1111122 
DISL,ioos:station:DISL:MHPA:1,2009-07-05T19:00:00Z,30.6671,-87.9365,4.699,7.54,1111122 
DISL,ioos:station:DISL:MHPA:1,2009-07-05T19:30:00Z,30.6671,-87.9365,4.632,7.68,1111122 
DISL,ioos:station:DISL:MHPA:1,2009-07-05T20:00:00Z,30.6671,-87.9365,4.512,7.78,1111122 
DISL,ioos:station:DISL:MHPA:1,2009-07-05T20:30:00Z,30.6671,-87.9365,4.371,7.69,1111122 
DISL,ioos:station:DISL:MHPA:1,2009-07-05T21:00:00Z,30.6671,-87.9365,4.244,7.66,1111122 
DISL,ioos:station:DISL:MHPA:1,2009-07-05T21:30:00Z,30.6671,-87.9365,4.209,7.68,1111122 
DISL,ioos:station:DISL:MHPA:1,2009-07-05T22:00:00Z,30.6671,-87.9365,3.993,7.65,1111122 
DISL,ioos:station:DISL:MHPA:1,2009-07-05T22:30:00Z,30.6671,-87.9365,3.996,7.82,1111122 
DISL,ioos:station:DISL:MHPA:1,2009-07-05T23:00:00Z,30.6671,-87.9365,3.804,7.87,1111122 
DISL,ioos:station:DISL:MHPA:1,2009-07-05T23:30:00Z,30.6671,-87.9365,3.656,7.85,1111122 
DISL,ioos:station:DISL:MHPA:1,2009-07-06T00:00:00Z,30.6671,-87.9365,3.618,7.73,1111122 
DISL,ioos:station:DISL:MHPA:1,2009-07-06T00:30:00Z,30.6671,-87.9365,3.442,7.61,1111122 
DISL,ioos:station:DISL:MHPA:1,2009-07-06T01:00:00Z,30.6671,-87.9365,3.326,7.34,1111122 
DISL,ioos:station:DISL:MHPA:1,2009-07-06T01:30:00Z,30.6671,-87.9365,3.223,7.24,1111122 
DISL,ioos:station:DISL:MHPA:1,2009-07-06T02:00:00Z,30.6671,-87.9365,3.237,7.1,1111122 
DISL,ioos:station:DISL:MHPA:1,2009-07-06T02:30:00Z,30.6671,-87.9365,3.12,6.98,1111122 
DISL,ioos:station:DISL:MHPA:1,2009-07-06T03:00:00Z,30.6671,-87.9365,3.053,6.97,1111122 
DISL,ioos:station:DISL:MHPA:1,2009-07-06T03:30:00Z,30.6671,-87.9365,3.034,6.74,1111122 
DISL,ioos:station:DISL:MHPA:1,2009-07-06T04:00:00Z,30.6671,-87.9365,3.009,6.63,1111122 
DISL,ioos:station:DISL:MHPA:1,2009-07-06T04:30:00Z,30.6671,-87.9365,3.012,6.61,1111122 
DISL,ioos:station:DISL:MHPA:1,2009-07-06T05:00:00Z,30.6671,-87.9365,3.053,6.5,1111122 
DISL,ioos:station:DISL:MHPA:1,2009-07-06T05:30:00Z,30.6671,-87.9365,3.124,6.48,1111122 
DISL,ioos:station:DISL:MHPA:1,2009-07-06T06:00:00Z,30.6671,-87.9365,3.231,6.51,1111122 
DISL,ioos:station:DISL:MHPA:1,2009-07-06T06:30:00Z,30.6671,-87.9365,3.332,6.32,1111122 
DISL,ioos:station:DISL:MHPA:1,2009-07-06T07:00:00Z,30.6671,-87.9365,3.472,6.42,1111122 
DISL,ioos:station:DISL:MHPA:1,2009-07-06T07:30:00Z,30.6671,-87.9365,3.593,6.3,1111122 
DISL,ioos:station:DISL:MHPA:1,2009-07-06T08:00:00Z,30.6671,-87.9365,3.676,5.99,1111122 
DISL,ioos:station:DISL:MHPA:1,2009-07-06T08:30:00Z,30.6671,-87.9365,3.743,5.94,1111122 
DISL,ioos:station:DISL:MHPA:1,2009-07-06T09:00:00Z,30.6671,-87.9365,3.836,5.89,1111122 
DISL,ioos:station:DISL:MHPA:1,2009-07-06T09:30:00Z,30.6671,-87.9365,3.939,5.92,1111122 
DISL,ioos:station:DISL:MHPA:1,2009-07-06T10:00:00Z,30.6671,-87.9365,4.04,5.83,1111122 
DISL,ioos:station:DISL:MHPA:1,2009-07-06T10:30:00Z,30.6671,-87.9365,4.093,5.87,1111122 
DISL,ioos:station:DISL:MHPA:1,2009-07-06T11:00:00Z,30.6671,-87.9365,4.142,6.01,1111122 
DISL,ioos:station:DISL:MHPA:1,2009-07-06T11:30:00Z,30.6671,-87.9365,4.207,5.93,1111122 
DISL,ioos:station:DISL:MHPA:1,2009-07-06T12:00:00Z,30.6671,-87.9365,4.288,5.85,1111122 
DISL,ioos:station:DISL:MHPA:1,2009-07-06T12:30:00Z,30.6671,-87.9365,4.39,5.8,1111122 
DISL,ioos:station:DISL:MHPA:1,2009-07-06T13:00:00Z,30.6671,-87.9365,4.454,5.79,1111122 
DISL,ioos:station:DISL:MHPA:1,2009-07-06T13:30:00Z,30.6671,-87.9365,4.466,5.9,1111122 
DISL,ioos:station:DISL:MHPA:1,2009-07-06T14:00:00Z,30.6671,-87.9365,4.571,5.92,1111122 
DISL,ioos:station:DISL:MHPA:1,2009-07-06T14:30:00Z,30.6671,-87.9365,4.668,5.83,1111122 
DISL,ioos:station:DISL:MHPA:1,2009-07-06T15:00:00Z,30.6671,-87.9365,4.805,5.69,1111122 
DISL,ioos:station:DISL:MHPA:1,2009-07-06T15:30:00Z,30.6671,-87.9365,4.869,5.93,1111122 